Location: Pine Ridge Estates
(42.5164°N, 73.8156°W)
Time: 17:38:00
(UTC+00:00)

Envisat - Visible Passes

Search period start: 06 October 2024 00:00
Search period end: 16 October 2024 00:00
Orbit: 762 x 764 km, 98.3° (Epoch: 06 October)

Date Brightness Start Highest point End Pass type
(mag) Time Alt. Az. Time Alt. Az. Time Alt. Az.
06 Oct 4.8 07:36:11 10° NNE 07:38:51 28° NE 07:38:51 28° NE visible
06 Oct 4.3 09:15:44 10° NNW 09:19:00 23° NW 09:19:00 23° NW visible
07 Oct 5.7 06:59:36 10° NE 07:00:48 14° ENE 07:00:48 14° ENE visible
07 Oct 3.9 08:37:36 10° N 08:40:56 37° NNW 08:40:56 37° NNW visible
08 Oct 4.3 08:00:01 10° NNE 08:02:53 34° NNE 08:02:53 34° NNE visible
08 Oct 4.7 09:40:38 10° NNW 09:43:02 15° NW 09:43:02 15° NW visible
09 Oct 5.3 07:22:54 10° NNE 07:24:50 21° NE 07:24:50 21° NE visible
09 Oct 4.2 09:01:57 10° N 09:04:58 26° NW 09:04:58 26° NW visible
10 Oct 4.1 08:24:02 10° N 08:26:55 34° N 08:26:55 34° N visible
11 Oct 4.8 07:46:35 10° NNE 07:48:51 26° NNE 07:48:51 26° NNE visible
11 Oct 4.6 09:26:34 10° NNW 09:28:59 18° NW 09:28:59 18° NW visible
12 Oct 5.7 07:09:44 10° NE 07:10:47 15° NE 07:10:47 15° NE visible
12 Oct 4.3 08:48:15 10° N 08:50:56 28° NNW 08:50:56 28° NNW visible
13 Oct 4.5 08:10:29 10° NNE 08:12:52 28° NNE 08:12:52 28° NNE visible
13 Oct 4.9 09:51:54 10° NW 09:53:00 12° NW 09:53:00 12° NW visible
14 Oct 5.3 07:33:14 10° NNE 07:34:48 19° NE 07:34:48 19° NE visible
14 Oct 4.5 09:12:40 10° NNW 09:14:56 20° NW 09:14:56 20° NW visible
15 Oct 6.0 06:56:42 10° NE 06:56:44 10° NE 06:56:44 10° NE visible
15 Oct 4.5 08:34:35 10° N 08:36:52 26° N 08:36:52 26° N visible
